| time (UTC) | temp F | wind direction | speed MPH | gust MPH | rain 1hr in | rain 24hr in | rain mn in | humidity % | barometer mb |
| 20260906190525 | 94 | 226 | 1.0 | 9.0 | 0.00 | 0.00 | 0.00 | 56 | 1011.2 |
| 20260906190332 | 95 | 254 | 3.0 | 9.0 | 0.00 | 0.00 | 0.00 | 55 | 1012.4 |
| 20260906190021 | 94 | 266 | 3.0 | 8.0 | 0.00 | 0.00 | 0.00 | 56 | 1011.3 |
| 20260906185518 | 94 | 281 | 3.0 | 6.0 | 0.00 | 0.00 | 0.00 | 57 | 1011.5 |
| 20260906185017 | 94 | 293 | 1.0 | 7.0 | 0.00 | 0.00 | 0.00 | 59 | 1011.6 |
| 20260906184822 | 95 | 288 | 2.0 | 7.0 | 0.00 | 0.00 | 0.00 | 55 | 1012.6 |
| 20260906184514 | 94 | 205 | 2.0 | 7.0 | 0.00 | 0.00 | 0.00 | 55 | 1011.7 |
| 20260906184008 | 94 | 315 | 3.0 | 7.0 | 0.00 | 0.00 | 0.00 | 55 | 1011.7 |
| 20260906183505 | 94 | 302 | 1.0 | 4.0 | 0.00 | 0.00 | 0.00 | 58 | 1011.7 |
| 20260906183316 | 95 | 199 | 2.0 | 4.0 | 0.00 | 0.00 | 0.00 | 55 | 1012.7 |
| 20260906183057 | 94 | 17 | 1.0 | 6.0 | 0.00 | 0.00 | 0.00 | 58 | 1011.8 |
| 20260906182553 | 94 | 101 | 1.0 | 6.0 | 0.00 | 0.00 | 0.00 | 58 | 1012.0 |
| 20260906182049 | 93 | 244 | 2.0 | 5.0 | 0.00 | 0.00 | 0.00 | 58 | 1012.0 |
| 20260906181826 | 93 | 186 | 2.0 | 5.0 | 0.00 | 0.00 | 0.00 | 59 | 1013.0 |
| 20260906181553 | 92 | 271 | 1.0 | 5.0 | 0.00 | 0.00 | 0.00 | 59 | 1012.0 |
| 20260906181042 | 92 | 247 | 1.0 | 4.0 | 0.00 | 0.00 | 0.00 | 59 | 1012.0 |
| 20260906180537 | 92 | 290 | 1.0 | 4.0 | 0.00 | 0.00 | 0.00 | 57 | 1012.2 |
| 20260906180319 | 93 | 324 | 1.0 | 8.0 | 0.00 | 0.00 | 0.00 | 57 | 1013.2 |
| 20260906180046 | 93 | 311 | 1.0 | 8.0 | 0.00 | 0.00 | 0.00 | 57 | 1012.3 |
| 20260906175525 | 93 | 286 | 2.0 | 8.0 | 0.00 | 0.00 | 0.00 | 57 | 1012.3 |
| 20260906175020 | 93 | 96 | 0.0 | 8.0 | 0.00 | 0.00 | 0.00 | 56 | 1012.3 |
| 20260906174830 | 94 | 248 | 1.0 | 8.0 | 0.00 | 0.00 | 0.00 | 56 | 1013.2 |
| 20260906174516 | 93 | 102 | 4.0 | 8.0 | 0.00 | 0.00 | 0.00 | 57 | 1012.2 |
| 20260906174014 | 93 | 175 | 2.0 | 7.0 | 0.00 | 0.00 | 0.00 | 61 | 1012.2 |
| 20260906173512 | 92 | 186 | 2.0 | 7.0 | 0.00 | 0.00 | 0.00 | 59 | 1012.3 |
| 20260906173322 | 92 | 198 | 1.0 | 4.0 | 0.00 | 0.00 | 0.00 | 59 | 1013.3 |
| 20260906173009 | 92 | 302 | 1.0 | 5.0 | 0.00 | 0.00 | 0.00 | 59 | 1012.4 |
| 20260906172505 | 92 | 94 | 2.0 | 5.0 | 0.00 | 0.00 | 0.00 | 61 | 1012.4 |
| 20260906172002 | 93 | 284 | 2.0 | 9.0 | 0.00 | 0.00 | 0.00 | 59 | 1012.3 |
| 20260906171813 | 93 | 273 | 2.0 | 9.0 | 0.00 | 0.00 | 0.00 | 60 | 1013.3 |
| 20260906171604 | 93 | 265 | 5.0 | 9.0 | 0.00 | 0.00 | 0.00 | 60 | 1012.2 |
| 20260906171502 | 93 | 269 | 3.0 | 9.0 | 0.00 | 0.00 | 0.00 | 60 | 1012.2 |
| 20260906171056 | 93 | 258 | 2.0 | 7.0 | 0.00 | 0.00 | 0.00 | 61 | 1012.3 |
| 20260906170554 | 92 | 122 | 3.0 | 7.0 | 0.00 | 0.00 | 0.00 | 61 | 1012.5 |
| 20260906170353 | 93 | 287 | 3.0 | 6.0 | 0.00 | 0.00 | 0.00 | 59 | 1013.5 |
| 20260906170040 | 92 | 175 | 0.0 | 6.0 | 0.00 | 0.00 | 0.00 | 62 | 1012.5 |
| 20260906165527 | 92 | 286 | 1.0 | 9.0 | 0.00 | 0.00 | 0.00 | 61 | 1012.6 |
| 20260906165022 | 92 | 206 | 3.0 | 9.0 | 0.00 | 0.00 | 0.00 | 61 | 1012.6 |
| 20260906164822 | 92 | 211 | 3.0 | 7.0 | 0.00 | 0.00 | 0.00 | 65 | 1013.6 |
| 20260906164518 | 91 | 263 | 0.0 | 7.0 | 0.00 | 0.00 | 0.00 | 63 | 1012.8 |
| 20260906164017 | 91 | 236 | 2.0 | 9.0 | 0.00 | 0.00 | 0.00 | 63 | 1013.0 |
| 20260906163514 | 91 | 278 | 3.0 | 8.0 | 0.00 | 0.00 | 0.00 | 64 | 1013.0 |
| 20260906163334 | 92 | 288 | 4.0 | 8.0 | 0.00 | 0.00 | 0.00 | 64 | 1014.0 |
| 20260906163056 | 91 | 232 | 3.0 | 8.0 | 0.00 | 0.00 | 0.00 | 66 | 1013.1 |
| 20260906162548 | 90 | 296 | 3.0 | 8.0 | 0.00 | 0.00 | 0.00 | 65 | 1013.1 |
| 20260906162040 | 90 | 276 | 1.0 | 6.0 | 0.00 | 0.00 | 0.00 | 64 | 1013.2 |
| 20260906161842 | 91 | 281 | 2.0 | 6.0 | 0.00 | 0.00 | 0.00 | 64 | 1014.3 |
| 20260906161524 | 90 | 192 | 2.0 | 8.0 | 0.00 | 0.00 | 0.00 | 65 | 1013.2 |
| 20260906161016 | 90 | 215 | 3.0 | 8.0 | 0.00 | 0.00 | 0.00 | 65 | 1013.3 |
| 20260906160510 | 90 | 216 | 1.0 | 4.0 | 0.00 | 0.00 | 0.00 | 66 | 1013.2 |
| 20260906160327 | 90 | 242 | 2.0 | 4.0 | 0.00 | 0.00 | 0.00 | 67 | 1014.2 |
| 20260906160007 | 89 | 214 | 1.0 | 7.0 | 0.00 | 0.00 | 0.00 | 70 | 1013.2 |
| 20260906155600 | 88 | 296 | 2.0 | 7.0 | 0.00 | 0.00 | 0.00 | 68 | 1013.3 |
| 20260906155502 | 89 | 321 | 2.0 | 7.0 | 0.00 | 0.00 | 0.00 | 68 | 1013.2 |
| 20260906155059 | 88 | 270 | 1.0 | 5.0 | 0.00 | 0.00 | 0.00 | 67 | 1013.2 |
| 20260906155003 | 88 | 215 | 1.0 | 5.0 | 0.00 | 0.00 | 0.00 | 67 | 1013.2 |
| 20260906154847 | 89 | 286 | 3.0 | 5.0 | 0.00 | 0.00 | 0.00 | 67 | 1014.3 |
| 20260906154530 | 88 | 335 | 1.0 | 6.0 | 0.00 | 0.00 | 0.00 | 68 | 1013.3 |
| 20260906154033 | 88 | 310 | 3.0 | 6.0 | 0.00 | 0.00 | 0.00 | 67 | 1013.4 |
| 20260906153526 | 88 | 252 | 1.0 | 8.0 | 0.00 | 0.00 | 0.00 | 68 | 1013.4 |
| 20260906153320 | 88 | 249 | 2.0 | 8.0 | 0.00 | 0.00 | 0.00 | 69 | 1014.5 |
| 20260906153027 | 88 | 304 | 3.0 | 8.0 | 0.00 | 0.00 | 0.00 | 68 | 1013.5 |
| 20260906152519 | 88 | 280 | 1.0 | 4.0 | 0.00 | 0.00 | 0.00 | 69 | 1013.6 |
| 20260906152014 | 87 | 333 | 2.0 | 6.0 | 0.00 | 0.00 | 0.00 | 69 | 1013.6 |
| 20260906151832 | 87 | 347 | 1.0 | 6.0 | 0.00 | 0.00 | 0.00 | 69 | 1014.5 |
| 20260906151511 | 87 | 63 | 3.0 | 6.0 | 0.00 | 0.00 | 0.00 | 68 | 1013.6 |
| 20260906151007 | 87 | 344 | 1.0 | 5.0 | 0.00 | 0.00 | 0.00 | 71 | 1013.6 |
| 20260906150600 | 87 | 292 | 3.0 | 6.0 | 0.00 | 0.00 | 0.00 | 70 | 1013.4 |
| 20260906150503 | 87 | 337 | 2.0 | 6.0 | 0.00 | 0.00 | 0.00 | 69 | 1013.4 |
| 20260906150324 | 87 | 335 | 2.0 | 6.0 | 0.00 | 0.00 | 0.00 | 70 | 1014.3 |
| 20260906150110 | 86 | 269 | 2.0 | 6.0 | 0.00 | 0.00 | 0.00 | 71 | 1013.4 |
| 20260906145553 | 86 | 313 | 2.0 | 6.0 | 0.00 | 0.00 | 0.00 | 72 | 1013.3 |
| 20260906145050 | 86 | 355 | 2.0 | 6.0 | 0.00 | 0.00 | 0.00 | 73 | 1013.3 |
| 20260906144816 | 86 | 321 | 3.0 | 7.0 | 0.00 | 0.00 | 0.00 | 74 | 1014.3 |
| 20260906144549 | 85 | 355 | 2.0 | 8.0 | 0.00 | 0.00 | 0.00 | 75 | 1013.3 |
| 20260906144047 | 85 | 302 | 3.0 | 8.0 | 0.00 | 0.00 | 0.00 | 75 | 1013.4 |
| 20260906143543 | 85 | 270 | 3.0 | 7.0 | 0.00 | 0.00 | 0.00 | 75 | 1013.4 |
| 20260906143324 | 85 | 284 | 3.0 | 7.0 | 0.00 | 0.00 | 0.00 | 74 | 1014.4 |
| 20260906143050 | 85 | 257 | 1.0 | 4.0 | 0.00 | 0.00 | 0.00 | 76 | 1013.4 |
| 20260906142534 | 84 | 34 | 1.0 | 5.0 | 0.00 | 0.00 | 0.00 | 76 | 1013.5 |
| 20260906142030 | 83 | 326 | 2.0 | 7.0 | 0.00 | 0.00 | 0.00 | 78 | 1013.5 |
| 20260906141839 | 84 | 294 | 3.0 | 7.0 | 0.00 | 0.00 | 0.00 | 78 | 1014.6 |
| 20260906141512 | 83 | 311 | 3.0 | 7.0 | 0.00 | 0.00 | 0.00 | 77 | 1013.6 |
| 20260906141004 | 83 | 278 | 1.0 | 4.0 | 0.00 | 0.00 | 0.00 | 79 | 1013.5 |
| 20260906140602 | 83 | 322 | 0.0 | 6.0 | 0.00 | 0.00 | 0.00 | 79 | 1013.5 |
| 20260906140314 | 83 | 23 | 2.0 | 6.0 | 0.00 | 0.00 | 0.00 | 79 | 1014.5 |
| 20260906140100 | 82 | 347 | 1.0 | 8.0 | 0.00 | 0.00 | 0.00 | 80 | 1013.6 |
| 20260906135556 | 82 | 288 | 2.0 | 8.0 | 0.00 | 0.00 | 0.00 | 81 | 1013.5 |
| 20260906135048 | 82 | 284 | 1.0 | 4.0 | 0.00 | 0.00 | 0.00 | 82 | 1013.5 |
| 20260906134819 | 82 | 299 | 1.0 | 7.0 | 0.00 | 0.00 | 0.00 | 82 | 1014.4 |
| 20260906134545 | 81 | 355 | 1.0 | 8.0 | 0.00 | 0.00 | 0.00 | 82 | 1013.5 |
| 20260906134046 | 81 | 323 | 3.0 | 8.0 | 0.00 | 0.00 | 0.00 | 82 | 1013.5 |
| 20260906133540 | 81 | 277 | 2.0 | 6.0 | 0.00 | 0.00 | 0.00 | 83 | 1013.5 |
| 20260906133323 | 81 | 262 | 2.0 | 6.0 | 0.00 | 0.00 | 0.00 | 83 | 1014.6 |
| 20260906133036 | 80 | 310 | 3.0 | 6.0 | 0.00 | 0.00 | 0.00 | 83 | 1013.7 |
| 20260906132526 | 80 | 13 | 2.0 | 5.0 | 0.00 | 0.00 | 0.00 | 84 | 1013.7 |
| 20260906132023 | 80 | 309 | 3.0 | 5.0 | 0.00 | 0.00 | 0.00 | 85 | 1013.7 |
| 20260906131822 | 80 | 267 | 3.0 | 5.0 | 0.00 | 0.00 | 0.00 | 85 | 1014.7 |
| 20260906131520 | 80 | 281 | 1.0 | 7.0 | 0.00 | 0.00 | 0.00 | 86 | 1013.7 |
| 20260906131018 | 79 | 302 | 2.0 | 7.0 | 0.00 | 0.00 | 0.00 | 86 | 1013.7 |
| 20260906130516 | 79 | 246 | 2.0 | 5.0 | 0.00 | 0.00 | 0.00 | 86 | 1013.7 |
| 20260906130343 | 79 | 285 | 2.0 | 5.0 | 0.00 | 0.00 | 0.00 | 86 | 1014.7 |
| 20260906130105 | 79 | 312 | 1.0 | 5.0 | 0.00 | 0.00 | 0.00 | 88 | 1013.7 |
| 20260906125546 | 78 | 294 | 1.0 | 8.0 | 0.00 | 0.00 | 0.00 | 89 | 1013.7 |
| 20260906125043 | 77 | 297 | 4.0 | 8.0 | 0.00 | 0.00 | 0.00 | 89 | 1013.7 |
| 20260906124815 | 78 | 322 | 2.0 | 7.0 | 0.00 | 0.00 | 0.00 | 90 | 1014.7 |
| 20260906124540 | 77 | 310 | 1.0 | 7.0 | 0.00 | 0.00 | 0.00 | 90 | 1013.7 |
| 20260906124038 | 77 | 265 | 1.0 | 4.0 | 0.00 | 0.00 | 0.00 | 91 | 1013.5 |
| 20260906123532 | 76 | 296 | 1.0 | 6.0 | 0.00 | 0.00 | 0.00 | 92 | 1013.6 |
| 20260906123339 | 77 | 248 | 2.0 | 6.0 | 0.00 | 0.00 | 0.00 | 92 | 1014.5 |
| 20260906123006 | 76 | 286 | 1.0 | 6.0 | 0.00 | 0.00 | 0.00 | 92 | 1013.5 |
| 20260906122504 | 76 | 282 | 2.0 | 6.0 | 0.00 | 0.00 | 0.00 | 92 | 1013.5 |
| 20260906122004 | 75 | 287 | 1.0 | 5.0 | 0.00 | 0.00 | 0.00 | 92 | 1013.5 |
| 20260906121823 | 76 | 281 | 2.0 | 5.0 | 0.00 | 0.00 | 0.00 | 92 | 1014.5 |
| 20260906121558 | 75 | 264 | 2.0 | 5.0 | 0.00 | 0.00 | 0.00 | 92 | 1013.5 |
| 20260906121056 | 75 | 263 | 2.0 | 6.0 | 0.00 | 0.00 | 0.00 | 92 | 1013.4 |
| 20260906120550 | 75 | 271 | 2.0 | 4.0 | 0.00 | 0.00 | 0.00 | 92 | 1013.3 |
| 20260906120348 | 75 | 265 | 3.0 | 4.0 | 0.00 | 0.00 | 0.00 | 92 | 1014.3 |
| 20260906120031 | 75 | 278 | 1.0 | 4.0 | 0.00 | 0.00 | 0.00 | 92 | 1013.3 |
| 20260906115524 | 75 | 273 | 2.0 | 5.0 | 0.00 | 0.00 | 0.00 | 92 | 1013.2 |
| 20260906115021 | 75 | 256 | 1.0 | 5.0 | 0.00 | 0.00 | 0.00 | 92 | 1013.1 |
| 20260906114826 | 75 | 268 | 2.0 | 5.0 | 0.00 | 0.00 | 0.00 | 92 | 1014.1 |
| 20260906114535 | 75 | 261 | 1.0 | 3.0 | 0.00 | 0.00 | 0.00 | 92 | 1013.1 |
| 20260906114017 | 75 | 283 | 1.0 | 3.0 | 0.00 | 0.00 | 0.00 | 92 | 1012.9 |
| 20260906113516 | 75 | 269 | 1.0 | 4.0 | 0.00 | 0.00 | 0.00 | 92 | 1012.9 |
| 20260906113328 | 75 | 265 | 1.0 | 4.0 | 0.00 | 0.00 | 0.00 | 92 | 1013.9 |
| 20260906113017 | 75 | 267 | 1.0 | 4.0 | 0.00 | 0.00 | 0.00 | 92 | 1013.0 |
| 20260906112510 | 75 | 275 | 1.0 | 4.0 | 0.00 | 0.00 | 0.00 | 92 | 1012.9 |
| 20260906112008 | 75 | 271 | 1.0 | 3.0 | 0.00 | 0.00 | 0.00 | 92 | 1013.0 |
| 20260906111827 | 75 | 270 | 1.0 | 3.0 | 0.00 | 0.00 | 0.00 | 92 | 1014.0 |
| 20260906111504 | 75 | 288 | 1.0 | 4.0 | 0.00 | 0.00 | 0.00 | 92 | 1013.0 |
| 20260906111101 | 75 | 259 | 2.0 | 4.0 | 0.00 | 0.00 | 0.00 | 92 | 1012.9 |
| 20260906111002 | 75 | 294 | 2.0 | 4.0 | 0.00 | 0.00 | 0.00 | 92 | 1012.9 |
| 20260906110558 | 75 | 266 | 1.0 | 3.0 | 0.00 | 0.00 | 0.00 | 92 | 1012.9 |
| 20260906110329 | 75 | 286 | 2.0 | 3.0 | 0.00 | 0.00 | 0.00 | 92 | 1013.8 |
| 20260906110057 | 75 | 284 | 1.0 | 3.0 | 0.00 | 0.00 | 0.00 | 92 | 1012.8 |
| 20260906105553 | 75 | 264 | 1.0 | 4.0 | 0.00 | 0.00 | 0.00 | 92 | 1012.8 |
| 20260906105046 | 75 | 257 | 1.0 | 4.0 | 0.00 | 0.00 | 0.00 | 92 | 1012.7 |
| 20260906104851 | 75 | 259 | 2.0 | 4.0 | 0.00 | 0.00 | 0.00 | 92 | 1013.8 |
| 20260906104524 | 75 | 226 | 1.0 | 4.0 | 0.00 | 0.00 | 0.00 | 92 | 1012.8 |
| 20260906104020 | 75 | 295 | 2.0 | 4.0 | 0.00 | 0.00 | 0.00 | 92 | 1012.7 |
| 20260906103517 | 75 | 283 | 1.0 | 4.0 | 0.00 | 0.00 | 0.00 | 92 | 1012.6 |
| 20260906103333 | 75 | 287 | 1.0 | 4.0 | 0.00 | 0.00 | 0.00 | 92 | 1013.5 |
| 20260906103014 | 75 | 269 | 2.0 | 4.0 | 0.00 | 0.00 | 0.00 | 92 | 1012.6 |
| 20260906102512 | 75 | 270 | 1.0 | 6.0 | 0.00 | 0.00 | 0.00 | 92 | 1012.5 |
| 20260906102010 | 75 | 281 | 2.0 | 6.0 | 0.00 | 0.00 | 0.00 | 92 | 1012.6 |
| 20260906101832 | 76 | 268 | 2.0 | 8.0 | 0.00 | 0.00 | 0.00 | 92 | 1013.4 |
| 20260906101517 | 75 | 283 | 2.0 | 8.0 | 0.00 | 0.00 | 0.00 | 92 | 1012.6 |
| 20260906101007 | 75 | 262 | 2.0 | 5.0 | 0.00 | 0.00 | 0.00 | 92 | 1012.6 |
| 20260906100506 | 75 | 294 | 1.0 | 4.0 | 0.00 | 0.00 | 0.00 | 92 | 1012.5 |
| 20260906100314 | 75 | 284 | 2.0 | 4.0 | 0.00 | 0.00 | 0.00 | 92 | 1013.4 |
| 20260906100058 | 75 | 292 | 2.0 | 4.0 | 0.00 | 0.00 | 0.00 | 92 | 1012.6 |
| 20260906095558 | 75 | 279 | 1.0 | 4.0 | 0.00 | 0.00 | 0.00 | 92 | 1012.5 |
| 20260906095054 | 75 | 261 | 1.0 | 3.0 | 0.00 | 0.00 | 0.00 | 92 | 1012.4 |
| 20260906094818 | 75 | 269 | 1.0 | 3.0 | 0.00 | 0.00 | 0.00 | 91 | 1013.3 |
| 20260906094551 | 75 | 256 | 1.0 | 3.0 | 0.00 | 0.00 | 0.00 | 91 | 1012.3 |
| 20260906094050 | 75 | 264 | 0.0 | 2.0 | 0.00 | 0.00 | 0.00 | 91 | 1012.3 |
| 20260906093547 | 75 | 264 | 1.0 | 2.0 | 0.00 | 0.00 | 0.00 | 91 | 1012.2 |
| 20260906093328 | 76 | 264 | 1.0 | 2.0 | 0.00 | 0.00 | 0.00 | 91 | 1013.0 |
| 20260906093038 | 75 | 264 | 0.0 | 2.0 | 0.00 | 0.00 | 0.00 | 91 | 1012.1 |
| 20260906092538 | 75 | 264 | 0.0 | 2.0 | 0.00 | 0.00 | 0.00 | 91 | 1012.1 |
| 20260906092036 | 75 | 246 | 0.0 | 3.0 | 0.00 | 0.00 | 0.00 | 91 | 1012.2 |
| 20260906091817 | 75 | 246 | 1.0 | 3.0 | 0.00 | 0.00 | 0.00 | 91 | 1013.1 |
| 20260906091528 | 75 | 246 | 0.0 | 3.0 | 0.00 | 0.00 | 0.00 | 91 | 1012.2 |
| 20260906091026 | 75 | 240 | 0.0 | 2.0 | 0.00 | 0.00 | 0.00 | 91 | 1012.2 |
| 20260906090526 | 75 | 242 | 0.0 | 2.0 | 0.00 | 0.00 | 0.00 | 91 | 1012.0 |
| 20260906090329 | 76 | 242 | 1.0 | 2.0 | 0.00 | 0.00 | 0.00 | 91 | 1012.9 |
| 20260906090020 | 75 | 242 | 0.0 | 2.0 | 0.00 | 0.00 | 0.00 | 91 | 1012.0 |
| 20260906085518 | 75 | 242 | 0.0 | 2.0 | 0.00 | 0.00 | 0.00 | 91 | 1012.0 |
| 20260906085013 | 75 | 242 | 0.0 | 2.0 | 0.00 | 0.00 | 0.00 | 91 | 1012.1 |
| 20260906084821 | 76 | 242 | 0.0 | 2.0 | 0.00 | 0.00 | 0.00 | 91 | 1012.9 |
| 20260906084510 | 75 | 242 | 0.0 | 2.0 | 0.00 | 0.00 | 0.00 | 91 | 1012.1 |
| 20260906084007 | 75 | 242 | 0.0 | 2.0 | 0.00 | 0.00 | 0.00 | 91 | 1011.9 |
| 20260906083510 | 75 | 242 | 0.0 | 2.0 | 0.00 | 0.00 | 0.00 | 91 | 1011.9 |
| 20260906083313 | 76 | 242 | 0.0 | 2.0 | 0.00 | 0.00 | 0.00 | 91 | 1012.7 |
| 20260906083100 | 75 | 242 | 0.0 | 2.0 | 0.00 | 0.00 | 0.00 | 90 | 1011.8 |
| 20260906083003 | 75 | 242 | 0.0 | 2.0 | 0.00 | 0.00 | 0.00 | 90 | 1011.8 |
| 20260906082557 | 75 | 242 | 0.0 | 1.0 | 0.00 | 0.00 | 0.00 | 90 | 1011.9 |
| 20260906082054 | 75 | 242 | 0.0 | 1.0 | 0.00 | 0.00 | 0.00 | 90 | 1012.0 |
| 20260906081821 | 76 | 242 | 0.0 | 1.0 | 0.00 | 0.00 | 0.00 | 90 | 1012.8 |
| 20260906081549 | 76 | 242 | 0.0 | 1.0 | 0.00 | 0.00 | 0.00 | 90 | 1011.9 |
| 20260906081048 | 76 | 242 | 0.0 | 1.0 | 0.00 | 0.00 | 0.00 | 90 | 1011.8 |
| 20260906080546 | 76 | 246 | 0.0 | 3.0 | 0.00 | 0.00 | 0.00 | 90 | 1011.8 |
| 20260906080313 | 76 | 246 | 1.0 | 3.0 | 0.00 | 0.00 | 0.00 | 90 | 1012.7 |
| 20260906080041 | 76 | 246 | 0.0 | 3.0 | 0.00 | 0.00 | 0.00 | 90 | 1011.8 |
| 20260906075539 | 76 | 223 | 0.0 | 3.0 | 0.00 | 0.00 | 0.00 | 90 | 1011.8 |
| 20260906075032 | 76 | 249 | 0.0 | 3.0 | 0.00 | 0.00 | 0.00 | 90 | 1011.8 |
| 20260906074823 | 76 | 249 | 1.0 | 3.0 | 0.00 | 0.00 | 0.00 | 90 | 1012.7 |
| 20260906074528 | 76 | 249 | 1.0 | 3.0 | 0.00 | 0.00 | 0.00 | 90 | 1011.7 |
| 20260906074025 | 76 | 236 | 0.0 | 3.0 | 0.00 | 0.00 | 0.00 | 90 | 1011.5 |
| 20260906073522 | 76 | 236 | 0.0 | 3.0 | 0.00 | 0.00 | 0.00 | 90 | 1011.4 |
| 20260906073353 | 76 | 233 | 1.0 | 3.0 | 0.00 | 0.00 | 0.00 | 90 | 1012.3 |
| 20260906073056 | 76 | 242 | 1.0 | 4.0 | 0.00 | 0.00 | 0.00 | 90 | 1011.4 |
| 20260906072557 | 76 | 218 | 1.0 | 4.0 | 0.00 | 0.00 | 0.00 | 90 | 1011.5 |
| 20260906072052 | 76 | 245 | 1.0 | 4.0 | 0.00 | 0.00 | 0.00 | 90 | 1011.7 |
| 20260906071819 | 77 | 284 | 1.0 | 3.0 | 0.00 | 0.00 | 0.00 | 90 | 1012.6 |
| 20260906071551 | 76 | 261 | 1.0 | 3.0 | 0.00 | 0.00 | 0.00 | 90 | 1011.7 |
| 20260906071046 | 76 | 284 | 1.0 | 3.0 | 0.00 | 0.00 | 0.00 | 90 | 1011.9 |
| 20260906070544 | 76 | 252 | 0.0 | 4.0 | 0.00 | 0.00 | 0.00 | 89 | 1011.9 |
| 20260906070326 | 77 | 239 | 2.0 | 4.0 | 0.00 | 0.00 | 0.00 | 89 | 1012.9 |
| 20260906070033 | 76 | 261 | 1.0 | 4.0 | 0.00 | 0.00 | 0.00 | 89 | 1012.2 |
| 20260906065534 | 76 | 273 | 2.0 | 4.0 | 0.00 | 0.00 | 0.00 | 89 | 1012.2 |
| 20260906065032 | 76 | 257 | 1.0 | 3.0 | 0.00 | 0.00 | 0.00 | 89 | 1012.1 |
| 20260906064815 | 77 | 272 | 1.0 | 3.0 | 0.00 | 0.00 | 0.00 | 89 | 1013.1 |
| 20260906064521 | 76 | 260 | 1.0 | 3.0 | 0.00 | 0.00 | 0.00 | 89 | 1012.3 |
| 20260906064021 | 76 | 256 | 1.0 | 3.0 | 0.00 | 0.00 | 0.00 | 89 | 1012.4 |
| 20260906063518 | 76 | 269 | 1.0 | 3.0 | 0.00 | 0.00 | 0.00 | 89 | 1012.5 |
| 20260906063320 | 77 | 284 | 2.0 | 3.0 | 0.00 | 0.00 | 0.00 | 89 | 1013.4 |
| 20260906063010 | 77 | 287 | 1.0 | 3.0 | 0.00 | 0.00 | 0.00 | 88 | 1012.5 |
| 20260906062507 | 77 | 296 | 1.0 | 3.0 | 0.00 | 0.00 | 0.00 | 88 | 1012.7 |
| 20260906062010 | 77 | 250 | 1.0 | 3.0 | 0.00 | 0.00 | 0.00 | 88 | 1012.7 |
| 20260906061829 | 77 | 285 | 1.0 | 3.0 | 0.00 | 0.00 | 0.00 | 88 | 1013.8 |
| 20260906061603 | 77 | 255 | 1.0 | 3.0 | 0.00 | 0.00 | 0.00 | 88 | 1012.7 |
| 20260906061502 | 77 | 255 | 1.0 | 3.0 | 0.00 | 0.00 | 0.00 | 88 | 1012.8 |
| 20260906061058 | 77 | 248 | 0.0 | 4.0 | 0.00 | 0.00 | 0.00 | 88 | 1012.8 |
| 20260906060553 | 77 | 257 | 0.0 | 4.0 | 0.00 | 0.00 | 0.00 | 88 | 1012.9 |
| 20260906060346 | 77 | 227 | 2.0 | 4.0 | 0.00 | 0.00 | 0.00 | 88 | 1013.9 |
| 20260906060032 | 77 | 254 | 1.0 | 5.0 | 0.00 | 0.00 | 0.00 | 88 | 1012.8 |
| 20260906055523 | 77 | 264 | 2.0 | 5.0 | 0.00 | 0.00 | 0.00 | 89 | 1012.9 |
| 20260906055022 | 77 | 261 | 2.0 | 4.0 | 0.00 | 0.00 | 0.00 | 88 | 1013.0 |
| 20260906054813 | 77 | 277 | 2.0 | 4.0 | 0.00 | 0.00 | 0.00 | 89 | 1014.0 |
| 20260906054535 | 77 | 298 | 1.0 | 3.0 | 0.00 | 0.00 | 0.00 | 89 | 1013.1 |
| 20260906054015 | 77 | 296 | 1.0 | 3.0 | 0.00 | 0.00 | 0.00 | 89 | 1013.2 |
| 20260906053512 | 77 | 294 | 0.0 | 3.0 | 0.00 | 0.00 | 0.00 | 89 | 1013.2 |
| 20260906053324 | 78 | 313 | 1.0 | 3.0 | 0.00 | 0.00 | 0.00 | 89 | 1014.3 |
| 20260906053008 | 77 | 325 | 1.0 | 3.0 | 0.00 | 0.00 | 0.00 | 89 | 1013.3 |
| 20260906052505 | 77 | 308 | 1.0 | 4.0 | 0.00 | 0.00 | 0.00 | 89 | 1013.3 |
| 20260906052100 | 77 | 311 | 1.0 | 4.0 | 0.00 | 0.00 | 0.00 | 89 | 1013.2 |
| 20260906052003 | 77 | 284 | 1.0 | 4.0 | 0.00 | 0.00 | 0.00 | 89 | 1013.2 |
| 20260906051832 | 78 | 287 | 1.0 | 4.0 | 0.00 | 0.00 | 0.00 | 89 | 1014.1 |
| 20260906051611 | 77 | 340 | 2.0 | 4.0 | 0.00 | 0.00 | 0.00 | 89 | 1013.3 |
| 20260906051056 | 77 | 334 | 1.0 | 4.0 | 0.00 | 0.00 | 0.00 | 89 | 1013.3 |
| 20260906050553 | 77 | 346 | 1.0 | 4.0 | 0.00 | 0.00 | 0.00 | 89 | 1013.1 |
| 20260906050320 | 78 | 315 | 2.0 | 3.0 | 0.00 | 0.00 | 0.00 | 89 | 1014.0 |
| 20260906050049 | 77 | 272 | 1.0 | 3.0 | 0.00 | 0.00 | 0.00 | 89 | 1013.1 |
| 20260906045547 | 77 | 315 | 1.0 | 3.0 | 0.00 | 0.00 | 0.00 | 89 | 1013.0 |
| 20260906045048 | 78 | 311 | 0.0 | 3.0 | 0.00 | 0.00 | 0.00 | 90 | 1012.9 |
| 20260906044825 | 78 | 281 | 2.0 | 4.0 | 0.00 | 0.00 | 0.00 | 90 | 1013.9 |
| 20260906044550 | 78 | 290 | 1.0 | 5.0 | 0.00 | 0.00 | 0.00 | 90 | 1012.8 |
| 20260906044035 | 78 | 289 | 1.0 | 5.0 | 0.00 | 0.00 | 0.00 | 90 | 1012.8 |
| 20260906043533 | 78 | 277 | 1.0 | 3.0 | 0.00 | 0.00 | 0.00 | 90 | 1012.7 |
| 20260906043331 | 78 | 282 | 1.0 | 3.0 | 0.00 | 0.00 | 0.00 | 90 | 1013.6 |
| 20260906043033 | 78 | 271 | 1.0 | 3.0 | 0.00 | 0.00 | 0.00 | 90 | 1012.7 |
| 20260906042536 | 78 | 290 | 0.0 | 3.0 | 0.00 | 0.00 | 0.00 | 90 | 1012.7 |
| 20260906042041 | 78 | 255 | 0.0 | 3.0 | 0.00 | 0.00 | 0.00 | 89 | 1012.6 |
| 20260906041815 | 79 | 255 | 1.0 | 3.0 | 0.00 | 0.00 | 0.00 | 89 | 1013.5 |
| 20260906041542 | 78 | 255 | 0.0 | 3.0 | 0.00 | 0.00 | 0.00 | 89 | 1012.5 |
| 20260906041040 | 78 | 255 | 1.0 | 3.0 | 0.00 | 0.00 | 0.00 | 89 | 1012.7 |
| 20260906040537 | 78 | 256 | 0.0 | 3.0 | 0.00 | 0.00 | 0.00 | 89 | 1012.8 |
| 20260906040338 | 79 | 265 | 1.0 | 2.0 | 0.00 | 0.00 | 0.00 | 89 | 1013.8 |
| 20260906040023 | 78 | 292 | 1.0 | 2.0 | 0.00 | 0.00 | 0.00 | 89 | 1012.8 |
| 20260906035600 | 79 | 288 | 1.0 | 2.0 | 0.00 | 0.00 | 0.00 | 88 | 1012.7 |
| 20260906035501 | 79 | 252 | 0.0 | 2.0 | 0.00 | 0.00 | 0.00 | 88 | 1012.7 |
| 20260906035057 | 79 | 252 | 0.0 | 3.0 | 0.00 | 0.00 | 0.00 | 88 | 1012.6 |
| 20260906034839 | 79 | 252 | 0.0 | 3.0 | 0.00 | 0.00 | 0.00 | 88 | 1013.6 |
| 20260906034530 | 79 | 238 | 0.0 | 3.0 | 0.00 | 0.00 | 0.00 | 88 | 1012.6 |
| 20260906034026 | 79 | 267 | 0.0 | 3.0 | 0.00 | 0.00 | 0.00 | 88 | 1012.8 |
| 20260906033523 | 79 | 267 | 0.0 | 3.0 | 0.00 | 0.00 | 0.00 | 88 | 1012.9 |
| 20260906033331 | 79 | 266 | 0.0 | 3.0 | 0.00 | 0.00 | 0.00 | 88 | 1013.7 |
| 20260906033038 | 79 | 266 | 0.0 | 2.0 | 0.00 | 0.00 | 0.00 | 88 | 1012.8 |
| 20260906032517 | 79 | 267 | 0.0 | 3.0 | 0.00 | 0.00 | 0.00 | 88 | 1012.9 |
| 20260906032015 | 79 | 267 | 0.0 | 3.0 | 0.00 | 0.00 | 0.00 | 88 | 1012.9 |
| 20260906031820 | 80 | 267 | 1.0 | 3.0 | 0.00 | 0.00 | 0.00 | 88 | 1013.9 |
| 20260906031511 | 79 | 227 | 1.0 | 3.0 | 0.00 | 0.00 | 0.00 | 87 | 1012.9 |
| 20260906031009 | 79 | 260 | 1.0 | 3.0 | 0.00 | 0.00 | 0.00 | 87 | 1013.0 |
| 20260906030508 | 79 | 246 | 0.0 | 1.0 | 0.00 | 0.00 | 0.00 | 87 | 1013.2 |
| 20260906030333 | 80 | 246 | 0.0 | 1.0 | 0.00 | 0.00 | 0.00 | 87 | 1014.2 |
| 20260906030004 | 79 | 246 | 0.0 | 2.0 | 0.00 | 0.00 | 0.00 | 87 | 1013.3 |
| 20260906025559 | 79 | 246 | 0.0 | 2.0 | 0.00 | 0.00 | 0.00 | 87 | 1013.3 |
| 20260906025503 | 79 | 246 | 0.0 | 2.0 | 0.00 | 0.00 | 0.00 | 87 | 1013.3 |
| 20260906025057 | 79 | 246 | 0.0 | 2.0 | 0.00 | 0.00 | 0.00 | 87 | 1013.4 |
| 20260906024814 | 80 | 246 | 0.0 | 2.0 | 0.00 | 0.00 | 0.00 | 87 | 1014.3 |
| 20260906024605 | 79 | 246 | 0.0 | 2.0 | 0.00 | 0.00 | 0.00 | 87 | 1013.3 |
| 20260906024049 | 80 | 246 | 0.0 | 2.0 | 0.00 | 0.00 | 0.00 | 87 | 1013.3 |
| 20260906023544 | 80 | 246 | 0.0 | 2.0 | 0.00 | 0.00 | 0.00 | 87 | 1013.3 |
| 20260906023340 | 80 | 246 | 0.0 | 2.0 | 0.00 | 0.00 | 0.00 | 87 | 1014.2 |
| 20260906023018 | 80 | 294 | 0.0 | 2.0 | 0.00 | 0.00 | 0.00 | 87 | 1013.3 |
| 20260906022515 | 80 | 294 | 0.0 | 3.0 | 0.00 | 0.00 | 0.00 | 87 | 1013.4 |
| 20260906022013 | 80 | 294 | 1.0 | 3.0 | 0.00 | 0.00 | 0.00 | 87 | 1013.3 |
| 20260906021825 | 81 | 277 | 2.0 | 3.0 | 0.00 | 0.00 | 0.00 | 87 | 1014.2 |
| 20260906021512 | 80 | 257 | 1.0 | 3.0 | 0.00 | 0.00 | 0.00 | 87 | 1013.2 |
| 20260906021009 | 80 | 263 | 0.0 | 0.0 | 0.00 | 0.00 | 0.00 | 86 | 1013.1 |
| 20260906020505 | 80 | 263 | 0.0 | 1.0 | 0.00 | 0.00 | 0.00 | 86 | 1013.1 |
| 20260906020333 | 81 | 263 | 0.0 | 1.0 | 0.00 | 0.00 | 0.00 | 86 | 1014.1 |
| 20260906020100 | 80 | 263 | 0.0 | 1.0 | 0.00 | 0.00 | 0.00 | 86 | 1013.1 |
| 20260906020001 | 80 | 263 | 0.0 | 1.0 | 0.00 | 0.00 | 0.00 | 86 | 1013.1 |
| 20260906015557 | 81 | 263 | 0.0 | 1.0 | 0.00 | 0.00 | 0.00 | 86 | 1013.2 |
| 20260906015055 | 81 | 263 | 0.0 | 3.0 | 0.00 | 0.00 | 0.00 | 86 | 1013.0 |
| 20260906014823 | 81 | 232 | 0.0 | 3.0 | 0.00 | 0.00 | 0.00 | 85 | 1014.0 |
| 20260906014551 | 81 | 232 | 0.0 | 3.0 | 0.00 | 0.00 | 0.00 | 85 | 1012.9 |
| 20260906014049 | 81 | 258 | 0.0 | 3.0 | 0.00 | 0.00 | 0.00 | 85 | 1012.9 |
| 20260906013545 | 81 | 258 | 0.0 | 3.0 | 0.00 | 0.00 | 0.00 | 85 | 1012.8 |
| 20260906013316 | 82 | 258 | 1.0 | 2.0 | 0.00 | 0.00 | 0.00 | 85 | 1013.8 |
| 20260906013041 | 81 | 260 | 0.0 | 1.0 | 0.00 | 0.00 | 0.00 | 84 | 1012.8 |
| 20260906012539 | 81 | 260 | 0.0 | 1.0 | 0.00 | 0.00 | 0.00 | 84 | 1012.8 |
| 20260906012033 | 81 | 260 | 0.0 | 1.0 | 0.00 | 0.00 | 0.00 | 84 | 1012.7 |
| 20260906011826 | 82 | 260 | 0.0 | 0.0 | 0.00 | 0.00 | 0.00 | 84 | 1013.6 |
| 20260906011529 | 82 | 260 | 0.0 | 1.0 | 0.00 | 0.00 | 0.00 | 83 | 1012.5 |
| 20260906011029 | 82 | 260 | 0.0 | 1.0 | 0.00 | 0.00 | 0.00 | 83 | 1012.6 |
| 20260906010523 | 82 | 260 | 0.0 | 0.0 | 0.00 | 0.00 | 0.00 | 82 | 1012.4 |
| 20260906010320 | 82 | 260 | 0.0 | 0.0 | 0.00 | 0.00 | 0.00 | 82 | 1013.2 |
| 20260906010019 | 82 | 260 | 0.0 | 0.0 | 0.00 | 0.01 | 0.00 | 82 | 1012.3 |
| 20260906005514 | 82 | 260 | 0.0 | 0.0 | 0.00 | 0.01 | 0.00 | 82 | 1012.2 |
| 20260906005013 | 82 | 260 | 0.0 | 0.0 | 0.00 | 0.01 | 0.00 | 81 | 1012.0 |
| 20260906004830 | 83 | 260 | 0.0 | 0.0 | 0.00 | 0.01 | 0.00 | 81 | 1012.8 |
| 20260906004507 | 82 | 260 | 0.0 | 1.0 | 0.00 | 0.01 | 0.00 | 81 | 1011.8 |
| 20260906004007 | 82 | 260 | 0.0 | 2.0 | 0.00 | 0.01 | 0.00 | 81 | 1011.6 |
| 20260906003503 | 83 | 260 | 0.0 | 2.0 | 0.00 | 0.01 | 0.00 | 80 | 1011.5 |
| 20260906003324 | 83 | 260 | 1.0 | 2.0 | 0.00 | 0.01 | 0.00 | 80 | 1012.4 |
| 20260906003058 | 83 | 260 | 1.0 | 2.0 | 0.00 | 0.01 | 0.00 | 80 | 1011.4 |
| 20260906002559 | 83 | 260 | 0.0 | 2.0 | 0.00 | 0.01 | 0.00 | 79 | 1011.3 |
| 20260906002053 | 83 | 260 | 0.0 | 3.0 | 0.00 | 0.01 | 0.00 | 79 | 1011.3 |
| 20260906001814 | 84 | 260 | 1.0 | 3.0 | 0.00 | 0.01 | 0.00 | 79 | 1012.3 |
| 20260906001549 | 83 | 260 | 0.0 | 2.0 | 0.00 | 0.01 | 0.00 | 79 | 1011.3 |
| 20260906001047 | 83 | 260 | 0.0 | 2.0 | 0.00 | 0.01 | 0.00 | 79 | 1011.2 |
| 20260906000543 | 84 | 260 | 0.0 | 3.0 | 0.00 | 0.01 | 0.00 | 78 | 1011.2 |
| 20260906000326 | 84 | 266 | 1.0 | 3.0 | 0.00 | 0.01 | 0.00 | 78 | 1012.3 |
| 20260906000035 | 84 | 270 | 1.0 | 3.0 | 0.00 | 0.08 | 0.00 | 78 | 1011.4 |
| 20260905235531 | 84 | 292 | 1.0 | 4.0 | 0.00 | 0.08 | 0.00 | 78 | 1011.4 |
| 20260905235033 | 85 | 289 | 1.0 | 4.0 | 0.00 | 0.08 | 0.00 | 77 | 1011.4 |
| 20260905234815 | 85 | 283 | 1.0 | 4.0 | 0.00 | 0.08 | 0.00 | 77 | 1012.3 |
| 20260905234528 | 85 | 283 | 1.0 | 4.0 | 0.00 | 0.08 | 0.00 | 77 | 1011.4 |
| 20260905234023 | 85 | 287 | 1.0 | 4.0 | 0.00 | 0.08 | 0.00 | 77 | 1011.4 |
| 20260905233524 | 85 | 283 | 1.0 | 4.0 | 0.00 | 0.08 | 0.00 | 77 | 1011.7 |
| 20260905233325 | 86 | 266 | 2.0 | 4.0 | 0.00 | 0.08 | 0.00 | 76 | 1012.5 |
| 20260905233017 | 85 | 284 | 1.0 | 3.0 | 0.00 | 0.08 | 0.00 | 77 | 1011.7 |
| 20260905232516 | 86 | 284 | 2.0 | 3.0 | 0.00 | 0.08 | 0.00 | 76 | 1011.7 |
| 20260905232013 | 86 | 275 | 1.0 | 3.0 | 0.00 | 0.08 | 0.00 | 76 | 1011.8 |
| 20260905231832 | 87 | 255 | 1.0 | 3.0 | 0.00 | 0.08 | 0.00 | 75 | 1012.8 |
| 20260905231512 | 87 | 273 | 1.0 | 3.0 | 0.00 | 0.08 | 0.00 | 75 | 1011.8 |
| 20260905231006 | 87 | 263 | 1.0 | 3.0 | 0.00 | 0.08 | 0.00 | 73 | 1011.8 |
| 20260905230504 | 87 | 265 | 1.0 | 3.0 | 0.00 | 0.08 | 0.00 | 72 | 1011.9 |
| 20260905230325 | 88 | 253 | 2.0 | 3.0 | 0.00 | 0.08 | 0.00 | 71 | 1012.7 |
| 20260905230105 | 87 | 246 | 0.0 | 4.0 | 0.00 | 0.08 | 0.00 | 72 | 1011.8 |
| 20260905225554 | 88 | 242 | 0.0 | 4.0 | 0.00 | 0.08 | 0.00 | 71 | 1011.9 |
| 20260905225051 | 88 | 250 | 0.0 | 3.0 | 0.00 | 0.08 | 0.00 | 70 | 1011.9 |
| 20260905224818 | 88 | 250 | 1.0 | 3.0 | 0.00 | 0.08 | 0.00 | 69 | 1012.8 |
| 20260905224610 | 88 | 232 | 0.0 | 3.0 | 0.00 | 0.08 | 0.00 | 69 | 1011.9 |
| 20260905224042 | 88 | 246 | 0.0 | 2.0 | 0.00 | 0.08 | 0.00 | 69 | 1011.9 |
| 20260905223537 | 89 | 292 | 0.0 | 4.0 | 0.00 | 0.08 | 0.00 | 69 | 1011.9 |
| 20260905223330 | 89 | 238 | 0.0 | 4.0 | 0.00 | 0.08 | 0.00 | 68 | 1012.8 |
| 20260905223043 | 89 | 232 | 2.0 | 4.0 | 0.00 | 0.08 | 0.00 | 67 | 1011.9 |
| 20260905222534 | 89 | 208 | 0.0 | 4.0 | 0.00 | 0.08 | 0.00 | 68 | 1011.9 |
| 20260905222028 | 89 | 185 | 1.0 | 4.0 | 0.00 | 0.08 | 0.00 | 67 | 1012.1 |
| 20260905221820 | 90 | 213 | 1.0 | 4.0 | 0.00 | 0.08 | 0.00 | 66 | 1013.0 |
| 20260905221525 | 89 | 196 | 0.0 | 4.0 | 0.00 | 0.08 | 0.00 | 66 | 1012.1 |
| 20260905221021 | 89 | 202 | 1.0 | 5.0 | 0.00 | 0.08 | 0.00 | 66 | 1012.0 |
| 20260905220517 | 89 | 190 | 2.0 | 5.0 | 0.00 | 0.08 | 0.00 | 65 | 1011.9 |
| 20260905220314 | 90 | 207 | 1.0 | 4.0 | 0.00 | 0.08 | 0.00 | 65 | 1012.9 |
| 20260905220013 | 90 | 163 | 1.0 | 4.0 | 0.00 | 0.08 | 0.00 | 66 | 1011.9 |
| 20260905215509 | 90 | 230 | 0.0 | 3.0 | 0.00 | 0.08 | 0.00 | 66 | 1012.0 |
| 20260905215009 | 90 | 155 | 1.0 | 3.0 | 0.00 | 0.08 | 0.00 | 66 | 1012.1 |
| 20260905214822 | 90 | 213 | 1.0 | 3.0 | 0.00 | 0.08 | 0.00 | 66 | 1012.9 |
| 20260905214503 | 90 | 239 | 0.0 | 5.0 | 0.00 | 0.08 | 0.00 | 65 | 1012.0 |
| 20260905214059 | 90 | 200 | 2.0 | 5.0 | 0.00 | 0.08 | 0.00 | 65 | 1012.0 |
| 20260905214001 | 90 | 192 | 2.0 | 5.0 | 0.00 | 0.08 | 0.00 | 65 | 1012.0 |
| 20260905213554 | 90 | 224 | 1.0 | 5.0 | 0.00 | 0.08 | 0.00 | 65 | 1012.1 |
| 20260905213351 | 91 | 216 | 2.0 | 4.0 | 0.00 | 0.08 | 0.00 | 64 | 1013.0 |
| 20260905213032 | 91 | 227 | 1.0 | 4.0 | 0.00 | 0.08 | 0.00 | 64 | 1012.1 |
| 20260905212533 | 91 | 224 | 1.0 | 5.0 | 0.00 | 0.08 | 0.00 | 63 | 1012.2 |
| 20260905212020 | 91 | 182 | 0.0 | 5.0 | 0.00 | 0.08 | 0.00 | 63 | 1012.1 |
| 20260905211836 | 92 | 282 | 1.0 | 5.0 | 0.00 | 0.08 | 0.00 | 62 | 1013.0 |
| 20260905211556 | 92 | 239 | 1.0 | 6.0 | 0.00 | 0.08 | 0.00 | 61 | 1012.2 |
| 20260905211051 | 92 | 242 | 2.0 | 8.0 | 0.00 | 0.08 | 0.00 | 62 | 1012.3 |
| 20260905210547 | 92 | 173 | 2.0 | 8.0 | 0.00 | 0.08 | 0.00 | 63 | 1012.4 |
| 20260905210327 | 92 | 142 | 2.0 | 8.0 | 0.00 | 0.08 | 0.00 | 62 | 1013.2 |
| 20260905210052 | 92 | 189 | 2.0 | 7.0 | 0.00 | 0.18 | 0.00 | 63 | 1012.5 |
| 20260905205535 | 92 | 247 | 1.0 | 6.0 | 0.00 | 0.18 | 0.00 | 63 | 1012.5 |
| 20260905205037 | 91 | 215 | 3.0 | 8.0 | 0.00 | 0.18 | 0.00 | 65 | 1012.4 |
| 20260905204813 | 92 | 242 | 2.0 | 8.0 | 0.00 | 0.18 | 0.00 | 65 | 1013.2 |
| 20260905204535 | 91 | 283 | 3.0 | 8.0 | 0.00 | 0.18 | 0.00 | 65 | 1012.3 |
| 20260905204023 | 90 | 212 | 3.0 | 7.0 | 0.00 | 0.18 | 0.00 | 67 | 1012.3 |
| 20260905203525 | 90 | 230 | 2.0 | 7.0 | 0.00 | 0.18 | 0.00 | 67 | 1012.2 |
| 20260905203343 | 90 | 218 | 3.0 | 7.0 | 0.00 | 0.18 | 0.00 | 68 | 1013.1 |
| 20260905203003 | 89 | 252 | 2.0 | 7.0 | 0.00 | 0.18 | 0.00 | 68 | 1012.2 |
| 20260905202558 | 90 | 259 | 3.0 | 7.0 | 0.00 | 0.18 | 0.00 | 66 | 1012.4 |
| 20260905202502 | 89 | 220 | 2.0 | 8.0 | 0.00 | 0.18 | 0.00 | 67 | 1012.3 |
| 20260905202058 | 89 | 291 | 3.0 | 8.0 | 0.00 | 0.18 | 0.00 | 66 | 1012.3 |
| 20260905202002 | 89 | 259 | 4.0 | 8.0 | 0.00 | 0.18 | 0.00 | 65 | 1012.3 |
| 20260905201827 | 90 | 262 | 3.0 | 7.0 | 0.00 | 0.18 | 0.00 | 65 | 1013.2 |
| 20260905201507 | 89 | 266 | 4.0 | 9.0 | 0.00 | 0.18 | 0.00 | 64 | 1012.3 |
| 20260905201010 | 89 | 288 | 2.0 | 9.0 | 0.00 | 0.18 | 0.00 | 68 | 1012.4 |
| 20260905200512 | 90 | 251 | 3.0 | 9.0 | 0.00 | 0.18 | 0.00 | 65 | 1012.4 |
| 20260905200314 | 91 | 272 | 4.0 | 9.0 | 0.00 | 0.18 | 0.00 | 63 | 1013.4 |
| 20260905200020 | 91 | 263 | 5.0 | 9.0 | 0.00 | 0.18 | 0.00 | 62 | 1012.5 |
| 20260905195512 | 92 | 254 | 4.0 | 7.0 | 0.00 | 0.18 | 0.00 | 61 | 1012.6 |
| 20260905195008 | 93 | 255 | 1.0 | 7.0 | 0.00 | 0.18 | 0.00 | 61 | 1012.7 |
| 20260905194819 | 94 | 222 | 1.0 | 7.0 | 0.00 | 0.18 | 0.00 | 59 | 1013.6 |
| 20260905194508 | 93 | 242 | 2.0 | 7.0 | 0.00 | 0.18 | 0.00 | 61 | 1012.7 |
| 20260905194008 | 92 | 258 | 2.0 | 6.0 | 0.00 | 0.18 | 0.00 | 62 | 1012.8 |
| 20260905193508 | 92 | 311 | 2.0 | 8.0 | 0.00 | 0.18 | 0.00 | 63 | 1013.0 |
| 20260905193326 | 93 | 279 | 3.0 | 8.0 | 0.00 | 0.18 | 0.00 | 62 | 1013.9 |
| 20260905193005 | 92 | 226 | 1.0 | 8.0 | 0.00 | 0.18 | 0.00 | 64 | 1013.0 |
| 20260905192506 | 92 | 292 | 3.0 | 8.0 | 0.00 | 0.18 | 0.00 | 64 | 1013.3 |
| 20260905192009 | 93 | 254 | 2.0 | 6.0 | 0.00 | 0.18 | 0.00 | 62 | 1013.2 |
| 20260905191831 | 93 | 210 | 3.0 | 9.0 | 0.00 | 0.18 | 0.00 | 61 | 1014.1 |
| 20260905191505 | 92 | 227 | 2.0 | 9.0 | 0.00 | 0.18 | 0.00 | 63 | 1013.1 |
| 20260905191100 | 92 | 221 | 3.0 | 9.0 | 0.00 | 0.18 | 0.00 | 61 | 1013.2 |
| 20260905191002 | 92 | 193 | 2.0 | 8.0 | 0.00 | 0.18 | 0.00 | 63 | 1013.1 |